Fairbanks Eiels, AK

3:43 AM AKST on November 21, 2017 (GMT -0900)
Eielson Air Force Base

Weather History for PAEI - December, 2013

Change the Weather History Date:

Friday, December 20, 2013

  Actual Average Record
Temperature  
Mean Temperature -3 °F -  
Max Temperature 2 °F 4 °F 35 °F (2000)
Min Temperature -8 °F -8 °F -45 °F (2012)
Degree Days  
Heating Degree Days 68    
Moisture  
Dew Point -7 °F    
Average Humidity 80    
Maximum Humidity 84    
Minimum Humidity 78    
Precipitation  
Precipitation 0.00 in - - ()
Sea Level Pressure  
Sea Level Pressure 29.78 in    
Wind  
Wind Speed 0 mph (East)    
Max Wind Speed 2 mph    
Max Gust Speed -    
Visibility 9 miles    
Events      
Averages and records for this station are not official NWS values.
T = Trace of Precipitation, MM = Missing Value Source: NWS Daily Summary

Daily Weather History Graph

Daily Weather History Graph

Search for Another Location

Airport or City:

Trip Planner

Search our weather history database for the weather conditions in past years. The results will help you decide how hot, cold, wet, or windy it might be!

Date:

Astronomy

Dec. 20, 2013 Rise Set
Actual Time 10:52 AM AKST 2:40 PM AKST
Civil Twilight 9:28 AM AKST 4:04 PM AKST
Nautical Twilight 8:17 AM AKST 5:15 PM AKST
Astronomical Twilight 7:15 AM AKST 6:16 PM AKST
Moon 7:43 PM AKST (12/20) 11:23 AM AKST (12/20)
Length of Visible Light 6h 36m
Length of Day
3h 48m
Waning Gibbous, 89% of the Moon is Illuminated
Dec 20
Waning Gibbous
Dec 25
Last Quarter
Jan 1
New
Jan 7
First Quarter
Jan 15
Full

Hourly Weather History & Observations

Time (AKST) Temp. Dew Point Humidity Pressure Visibility Wind Dir Wind Speed Gust Speed Precip Events Conditions
12:58 AM -2.4 °F -7.1 °F 80% 29.81 in 10.0 mi Calm Calm - N/A   Mostly Cloudy
1:58 AM -1.1 °F -5.6 °F 81% 29.80 in 10.0 mi Calm Calm - N/A   Clear
2:58 AM -3.8 °F -8.3 °F 81% 29.81 in 8.0 mi Calm Calm - N/A   Clear
3:13 AM -4.0 °F -9.4 °F 78% 29.75 in 7.0 mi Calm Calm - N/A   Clear
3:28 AM -4.0 °F -9.4 °F 78% 29.75 in 10.0 mi North 2.3 mph - N/A   Clear
3:58 AM -4.4 °F -9.2 °F 80% 29.82 in 10.0 mi Calm Calm - N/A   Partly Cloudy
4:58 AM -2.2 °F -6.9 °F 80% 29.81 in 10.0 mi Calm Calm - N/A   Clear
5:58 AM -1.7 °F -6.3 °F 80% 29.82 in 10.0 mi Calm Calm - N/A   Clear
6:58 AM -1.1 °F -5.8 °F 81% 29.82 in 10.0 mi Calm Calm - N/A   Clear
7:58 AM 0.1 °F -4.5 °F 81% 29.83 in 10.0 mi Calm Calm - N/A   Clear
8:58 AM 0.9 °F -4.2 °F 79% 29.83 in 10.0 mi Calm Calm - N/A   Overcast
9:58 AM 0.9 °F -3.8 °F 81% 29.82 in 10.0 mi Calm Calm - N/A   Overcast
10:58 AM 1.2 °F -3.3 °F 81% 29.83 in 10.0 mi Calm Calm - N/A   Mostly Cloudy
11:58 AM 0.7 °F -3.8 °F 81% 29.83 in 10.0 mi Calm Calm - N/A   Mostly Cloudy
12:58 PM 1.6 °F -2.7 °F 82% 29.82 in 10.0 mi Calm Calm - N/A   Mostly Cloudy
1:58 PM 2.1 °F -2.4 °F 81% 29.81 in 10.0 mi Calm Calm - N/A   Overcast
2:58 PM 0.9 °F -3.6 °F 81% 29.81 in 10.0 mi Calm Calm - N/A   Scattered Clouds
3:58 PM 0.9 °F -3.3 °F 83% 29.80 in 10.0 mi Calm Calm - N/A   Overcast
4:58 PM -0.8 °F -5.1 °F 82% 29.79 in 10.0 mi Calm Calm - N/A   Mostly Cloudy
5:59 PM -2.7 °F -7.1 °F 82% 29.77 in 10.0 mi Calm Calm - N/A   Partly Cloudy
6:58 PM -4.5 °F -9.2 °F 80% 29.76 in 7.0 mi Calm Calm - N/A   Partly Cloudy
7:58 PM -6.3 °F -11.2 °F 79% 29.75 in 10.0 mi Calm Calm - N/A   Partly Cloudy
8:58 PM -7.1 °F -11.9 °F 79% 29.73 in 10.0 mi Calm Calm - N/A   Clear
9:58 PM -6.0 °F -10.8 °F 79% 29.72 in 10.0 mi Calm Calm - N/A   Clear
10:58 PM -8.0 °F -13.0 °F 79% 29.70 in 10.0 mi SSE 2.3 mph - N/A   Clear
11:43 PM -7.6 °F -11.2 °F 84% 29.64 in 6.0 mi Calm Calm - N/A   Haze
11:58 PM -6.7 °F -11.7 °F 79% 29.70 in 7.0 mi Calm Calm - N/A   Clear